Location: Stanford
(52.2833°N, 2.4333°W)
Time: 21:50:21
(UTC+00:00)

Cosmos 1092 Rocket - Pass Details

Date: 22 January 2021
Orbit: 954 x 995 km, 83.0° (Epoch: 01 March)

Event Time Altitude Azimuth Distance (km) Brightness Sun altitude
Rises 19:28:34 0° 199° (SSW) 3,651 7.2 -25.5°
Reaches altitude 10° 19:31:06 10° 202° (SSW) 2,703 6.5 -25.9°
Maximum altitude 19:37:14 64° 284° (WNW) 1,062 4.3 -26.8°
Drops below altitude 10° 19:43:22 10° 6° (N) 2,700 6.3 -27.7°
Sets 19:45:54 0° 10° (N) 3,648 7.0 -28.1°
